This is the latest recevied weather packets stored in our database for station/object K9ZOG. If no packets are shown the sender has not sent any weather packets the latest 10 day(s).
| Time | Temp. | Humidity | Pressure | Rain* | Wind** | Luminosity | Snow |
|---|---|---|---|---|---|---|---|
| 1778013555 | 11.67° C | 42% | 1009 hPa | 0 mm | - | 253 W/m² | - |
| 1778013257 | 11.67° C | 40% | 1009 hPa | 0 mm | - | 267 W/m² | - |
| 1778012953 | 11.67° C | 42% | 1009.1 hPa | 0 mm | - | 303 W/m² | - |
| 1778012653 | 12.22° C | 40% | 1009.2 hPa | 0 mm | - | 388 W/m² | - |
| 1778012353 | 12.22° C | 42% | 1009.3 hPa | 0 mm | - | 502 W/m² | - |
| 1778012053 | 11.67° C | 44% | 1009.4 hPa | 0 mm | - | 571 W/m² | - |
| 1778011753 | 11.67° C | 44% | 1009.3 hPa | 0 mm | - | 565 W/m² | - |
| 1778011455 | 11.67° C | 41% | 1009.3 hPa | 0 mm | - | 339 W/m² | - |
| 1778011156 | 11.67° C | 41% | 1009.4 hPa | 0 mm | - | 353 W/m² | - |
| 1778010856 | 11.67° C | 42% | 1009.4 hPa | 0 mm | - | 344 W/m² | - |
| 1778010553 | 11.67° C | 43% | 1009.4 hPa | 0 mm | - | 360 W/m² | - |
| 1778010252 | 11.67° C | 42% | 1009.3 hPa | 0 mm | - | 365 W/m² | - |
| 1778009953 | 11.67° C | 43% | 1009.3 hPa | 0 mm | - | 399 W/m² | - |
| 1778009652 | 11.67° C | 41% | 1009.3 hPa | 0 mm | - | 347 W/m² | - |
| 1778009353 | 11.67° C | 42% | 1009.2 hPa | 0 mm | - | 333 W/m² | - |
| 1778009052 | 11.67° C | 41% | 1009.2 hPa | 0 mm | - | 365 W/m² | - |
| 1778008755 | 12.22° C | 41% | 1009.2 hPa | 0 mm | - | 406 W/m² | - |
| 1778008453 | 12.22° C | 41% | 1009.4 hPa | 0 mm | - | 541 W/m² | - |
| 1778008153 | 12.22° C | 41% | 1009.3 hPa | 0 mm | - | 543 W/m² | - |
| 1778007853 | 11.67° C | 41% | 1009.2 hPa | 0 mm | - | 562 W/m² | - |
| 1778007553 | 11.67° C | 44% | 1009.1 hPa | 0 mm | - | 703 W/m² | - |
| 1778007253 | 11.67° C | 44% | 1009.1 hPa | 0 mm | - | 486 W/m² | - |
| 1778006953 | 11.67° C | 43% | 1008.9 hPa | 0 mm | - | 566 W/m² | - |
| 1778006654 | 11.67° C | 43% | 1008.8 hPa | 0 mm | - | 439 W/m² | - |
| 1778006352 | 11.67° C | 41% | 1008.7 hPa | 0 mm | - | 526 W/m² | - |
* Rain latest hour (hover to see other rain measurements)
** Current wind speed in m/s (hover to see current wind gust speed)